sat.trackr.live / text

‹ back to catalog

STARLINK-33894

NORAD 63697 · 2025-087A

PAYLOAD ACTIVE UNKNOWN

§ Identity

Operator
Country
US
Launch date
2025-04-28
Launch site
AFWTR
Launch vehicle
Mass (kg)
RCS (m²)

Purposes: comms

External: N2YO · Heavens-Above · Gunter

§ Orbital elements

Epoch: 2026-05-25T05:30:18.363744Z

Period
93.85 min
Inclination
53.1574°
Eccentricity
0.0001111
Mean motion
15.34416143 rev/d
Perigee alt
461.9 km
Apogee alt
463.4 km
Semi-major
6,840.8 km
B*
9.7759e-4
RAAN
222.9454°
Arg perigee
76.2746°
Mean anomaly
283.8380°
Rev number
6,093

§ Raw data

STARLINK-338941 63697U 25087A   26145.22937921  .00032815  00000+0  97759-3 0  99942 63697  53.1574 222.9454 0001111  76.2746 283.8380 15.34416143 60934

JSON: /api/v1/satellites/63697 · /tle

For live sub-satellite position, see the globe view (requires WebGL).

§ Visibility from observer

Set your observer location to see the next 7 days of passes ≥ 10°. The values pass through the URL so the page stays shareable.

No JS? Fill the form by hand. The geolocation button needs JavaScript.